Weather History for Caldwell, NJ

Change the Weather History Date:

Saturday, November 24, 2012

  Actual Average Record
Temperature  
Mean Temperature 42 °F -  
Max Temperature 48 °F 49 °F 67 °F (1979)
Min Temperature 35 °F 31 °F 15 °F (1956)
Degree Days  
Heating Degree Days 24    
Moisture  
Dew Point 19 °F    
Average Humidity 42    
Maximum Humidity 56    
Minimum Humidity 32    
Precipitation  
Precipitation 0.00 in - - ()
Sea Level Pressure  
Sea Level Pressure 29.79 in    
Wind  
Wind Speed 12 mph (NW)    
Max Wind Speed 18 mph    
Max Gust Speed 31 mph    
Visibility 10 miles    
Events      
Averages and records for this station are not official NWS values.
T = Trace of Precipitation, MM = Missing Value Source: NWS Daily Summary

Daily Weather History Graph

Daily Weather History Graph

Search for Another Location

Airport:

Trip Planner

Search our weather history database for the weather conditions in past years. The results will help you decide how hot, cold, wet, or windy it might be!

Date:

Astronomy

Nov. 24, 2012 Rise Set
Actual Time 6:55 AM EST 4:32 PM EST
Civil Twilight 6:25 AM EST 5:02 PM EST
Nautical Twilight 5:51 AM EST 5:36 PM EST
Astronomical Twilight 5:18 AM EST 6:09 PM EST
Moon 2:16 PM EST (11/24) 3:08 AM EST (11/24)
Length of Visible Light 10h 37m
Length of Day
9h 37m
Waxing Gibbous, 87% of the Moon is Illuminated
Nov 24
Waxing Gibbous
Nov 28
Full
Dec 6
Last Quarter
Dec 13
New
Dec 20
First Quarter

Hourly Weather History & Observations

Time (EST) Temp. Windchill Dew Point Humidity Pressure Visibility Wind Dir Wind Speed Gust Speed Precip Events Conditions
12:53 AM 48.9 °F - 34.0 °F 56% 29.70 in 10.0 mi WNW 12.7 mph 18.4 mph N/A   Mostly Cloudy
1:53 AM 46.0 °F 40.6 °F 28.0 °F 50% 29.72 in 10.0 mi WNW 11.5 mph 19.6 mph N/A   Partly Cloudy
2:53 AM 44.1 °F 39.5 °F 25.0 °F 47% 29.72 in 10.0 mi WNW 8.1 mph - N/A   Overcast
3:53 AM 42.1 °F 36.6 °F 25.0 °F 51% 29.73 in 10.0 mi NW 9.2 mph - N/A   Partly Cloudy
4:53 AM 42.1 °F 36.1 °F 19.9 °F 41% 29.75 in 10.0 mi NW 10.4 mph 19.6 mph N/A   Clear
5:53 AM 39.9 °F 34.5 °F 18.0 °F 41% 29.77 in 10.0 mi WNW 8.1 mph 16.1 mph N/A   Clear
6:53 AM 39.0 °F 32.8 °F 19.0 °F 45% 29.78 in 10.0 mi WNW 9.2 mph - N/A   Clear
7:53 AM 39.0 °F 31.0 °F 19.0 °F 45% 29.80 in 10.0 mi NW 13.8 mph 19.6 mph N/A   Scattered Clouds
8:53 AM 41.0 °F 33.5 °F 18.0 °F 40% 29.79 in 10.0 mi NW 13.8 mph 23.0 mph N/A   Scattered Clouds
9:53 AM 42.1 °F 34.2 °F 17.1 °F 37% 29.79 in 10.0 mi NW 16.1 mph 27.6 mph N/A   Mostly Cloudy
10:53 AM 41.0 °F 33.9 °F 18.0 °F 40% 29.79 in 10.0 mi NNW 12.7 mph 26.5 mph N/A   Overcast
11:53 AM 41.0 °F 32.2 °F 18.0 °F 40% 29.77 in 10.0 mi NW 18.4 mph 28.8 mph N/A   Overcast
12:53 PM 41.0 °F 34.3 °F 19.9 °F 43% 29.76 in 10.0 mi NNW 11.5 mph 19.6 mph N/A   Overcast
1:53 PM 41.0 °F 32.5 °F 19.9 °F 43% 29.76 in 10.0 mi WNW 17.3 mph 27.6 mph N/A   Mostly Cloudy
2:53 PM 41.0 °F 33.5 °F 18.0 °F 40% 29.75 in 10.0 mi WNW 13.8 mph 25.3 mph N/A   Overcast
3:53 PM 39.9 °F 32.1 °F 15.1 °F 36% 29.77 in 10.0 mi NW 13.8 mph 23.0 mph N/A   Scattered Clouds
4:53 PM 39.9 °F 32.5 °F 12.0 °F 32% 29.78 in 10.0 mi NW 12.7 mph 29.9 mph N/A   Mostly Cloudy
5:53 PM 39.0 °F 29.9 °F 15.1 °F 38% 29.82 in 10.0 mi NW 17.3 mph 31.1 mph N/A   Overcast
6:53 PM 37.9 °F 29.6 °F 12.0 °F 35% 29.83 in 10.0 mi WNW 13.8 mph 25.3 mph N/A   Clear
7:53 PM 36.0 °F 29.0 °F 14.0 °F 41% 29.84 in 10.0 mi WNW 9.2 mph - N/A   Clear
8:53 PM 36.0 °F 28.5 °F 15.1 °F 43% 29.84 in 10.0 mi WNW 10.4 mph 20.7 mph N/A   Clear
9:53 PM 35.1 °F 27.9 °F 17.1 °F 48% 29.86 in 10.0 mi NW 9.2 mph 17.3 mph N/A   Clear
10:53 PM 35.1 °F 29.3 °F 15.1 °F 44% 29.87 in 10.0 mi West 6.9 mph - N/A   Clear
11:53 PM 35.1 °F 27.4 °F 12.9 °F 40% 29.88 in 10.0 mi WNW 10.4 mph - N/A   Clear